Location: Waltman Observatory
(32.5145°N, 90.4450°W)
Time: 17:06:26
(UTC-06:00)

Amateur Radio Satellites - All Passes

Search period start: 02 March 2015 16:36
Search period end: 03 March 2015 16:36
Location: Waltman Observatory, 32.5145°N, 90.4450°W

Satellite Date Start Highest point End Downlink Frequencies (MHz)
Time Altitude Azimuth
BEESAT 3 02 Mar 16:42:51 16:46:52 67° 116° (ESE) 16:50:59 437.485
M-CUBED/EXP-1 PRIME 02 Mar 16:46:21 16:50:40 70° 288° (WNW) 16:55:18 437.505
AUBIESAT-1 02 Mar 16:48:28 16:52:49 75° 288° (WNW) 16:57:27 437.475
JAS-2 02 Mar 16:54:44 16:59:05 24° 268° (W) 17:03:35 435.910
AIST 2 02 Mar 17:05:00 17:08:47 33° 113° (ESE) 17:12:40 435.215
ISS 02 Mar 17:06:49 17:09:20 20° 231° (SW) 17:11:47 145.825
BEESAT 2 02 Mar 17:08:09 17:12:14 71° 299° (WNW) 17:16:23 435.950
MOZHAYETS 4 02 Mar 17:08:57 17:13:30 54° 284° (WNW) 17:18:01
CUBESAT XI-V 02 Mar 17:31:50 17:34:35 16° 92° (E) 17:37:31 437.345
Cubesat XI-IV 02 Mar 17:37:12 17:42:33 85° 79° (E) 17:47:58 437.490
CUTE-I 02 Mar 17:46:13 17:51:35 80° 257° (WSW) 17:57:00 437.470
YUBILEINY 02 Mar 17:58:08 18:04:10 19° 293° (WNW) 18:09:44 435.215
O/OREOS (USA 219) 02 Mar 18:05:26 18:06:30 11° 56° (ENE) 18:07:52 437.305
AIST 1 02 Mar 18:06:21 18:10:41 54° 81° (E) 18:14:57
VERMONT LUNAR 02 Mar 18:10:34 18:13:47 33° 343° (NNW) 18:16:59 437.305
PHONESAT 2.4 02 Mar 18:13:00 18:16:35 56° 337° (NNW) 18:20:11 2401.200-2431.200
PRISM 02 Mar 18:18:02 18:22:12 56° 100° (E) 18:26:21 437.425
BRITE-PL 02 Mar 18:22:31 18:23:28 11° 67° (ENE) 18:24:49 437.365/2234.400
BEESAT 3 02 Mar 18:25:10 18:25:30 10° 313° (NW) 18:25:36 437.485
AIST 2 02 Mar 18:44:25 18:47:31 19° 308° (NW) 18:50:31 435.215
DOVE 4 02 Mar 19:02:37 19:03:57 11° 68° (ENE) 19:05:36 437.250
CUBESAT XI-V 02 Mar 19:07:50 19:12:14 39° 286° (WNW) 19:16:34 437.345
STRAND 1 02 Mar 19:11:23 19:16:31 72° 285° (WNW) 19:21:37 437.568
AAUSAT CUBESAT 2 02 Mar 19:32:49 19:35:08 15° 70° (ENE) 19:37:38 437.432
COMPASS 1 02 Mar 19:34:48 19:37:39 19° 71° (ENE) 19:40:38 437.405
HO-68 02 Mar 19:34:50 19:41:38 51° 70° (ENE) 19:48:31 435.675
O/OREOS (USA 219) 02 Mar 19:41:55 19:46:27 61° 253° (WSW) 19:50:56 437.305
PCSat 02 Mar 19:49:16 19:54:24 46° 111° (ESE) 19:59:35 145.827
VERMONT LUNAR 02 Mar 19:49:33 19:52:17 21° 0° (N) 19:55:01 437.305
PHONESAT 2.4 02 Mar 19:52:29 19:55:30 24° 354° (N) 19:58:30 2401.200-2431.200
BRITE-PL 02 Mar 19:55:43 20:01:25 87° 256° (WSW) 20:06:58 437.365/2234.400
SEEDS 02 Mar 20:00:52 20:04:53 49° 75° (ENE) 20:08:57 437.485
GOMX 1 02 Mar 20:00:58 20:06:23 73° 77° (ENE) 20:11:37 467.674
CANX-2 02 Mar 20:03:53 20:08:05 75° 78° (ENE) 20:12:18 2200.000
GONETS M04 02 Mar 20:14:18 20:19:07 17° 83° (E) 20:24:32
UKube-1 02 Mar 20:19:40 20:21:03 12° 68° (ENE) 20:22:43 .
CUTE 1.7 + AOD 2 02 Mar 20:22:30 20:26:42 70° 259° (W) 20:30:54 437.475
UWE-3 02 Mar 20:28:58 20:32:15 21° 72° (ENE) 20:35:34 435.000/436.395/437.385
DOVE 4 02 Mar 20:36:05 20:41:18 71° 259° (WSW) 20:46:18 437.250
DELFI C3 02 Mar 20:39:11 20:42:47 33° 74° (ENE) 20:46:27 145.870
CINEMA 3 02 Mar 20:44:23 20:49:14 76° 77° (ENE) 20:53:54 145.822/145.860
RS-15 02 Mar 20:46:55 20:48:57 11° 101° (ESE) 20:52:16 29.354- 29.394
Oscar 11 02 Mar 20:58:43 21:03:01 82° 79° (E) 21:07:20 145.826/435.025
CUBEBUG 2 02 Mar 21:05:09 21:09:43 70° 76° (ENE) 21:14:07 437.445
AAUSAT CUBESAT 2 02 Mar 21:06:48 21:10:33 33° 263° (W) 21:14:17 437.432
COMPASS 1 02 Mar 21:09:41 21:13:14 26° 264° (W) 21:16:42 437.405
DX 1 02 Mar 21:22:56 21:27:18 74° 76° (ENE) 21:31:42 434.975-435.025
HO-68 02 Mar 21:23:57 21:29:41 25° 266° (W) 21:35:10 435.675
AISAT 02 Mar 21:26:59 21:30:51 30° 72° (ENE) 21:34:49 437.250
VERMONT LUNAR 02 Mar 21:27:33 21:30:47 35° 17° (NNE) 21:34:01 437.305
PHONESAT 2.4 02 Mar 21:31:29 21:34:37 27° 11° (N) 21:37:46 2401.200-2431.200
CUBEBUG 1 02 Mar 21:32:20 21:34:20 13° 69° (ENE) 21:36:34 437.445
PCSat 02 Mar 21:34:01 21:38:05 21° 307° (NW) 21:42:02 145.827
VELOX 1 02 Mar 21:36:14 21:40:20 37° 73° (ENE) 21:44:29 145.980
GOMX 1 02 Mar 21:43:25 21:44:59 11° 271° (W) 21:46:07 467.674
FUNcube-1 02 Mar 21:43:32 21:47:55 61° 260° (W) 21:52:12 145.935
50 SAT 02 Mar 21:44:23 21:48:10 42° 75° (ENE) 21:51:56 437.505
ZACube-1 02 Mar 21:44:50 21:49:11 58° 260° (W) 21:53:27 437.345
HUMSAT D 02 Mar 21:47:38 21:51:51 73° 77° (ENE) 21:56:00 437.325/437.525
ESTCUBE 1 02 Mar 21:52:28 21:56:09 26° 72° (ENE) 21:59:57 437.505/2401.250
UKube-1 02 Mar 21:52:37 21:56:50 50° 260° (W) 22:01:05 .
NANOSAT C BR1 02 Mar 21:56:27 21:57:47 12° 91° (E) 21:59:22 145.865
UWE-3 02 Mar 22:04:48 22:08:40 27° 264° (W) 22:12:23 435.000/436.395/437.385
GONETS M04 02 Mar 22:06:29 22:15:10 76° 277° (W) 22:23:53
UNISAT 6 02 Mar 22:08:23 22:12:18 34° 98° (E) 22:16:18 437.425
DELFI C3 02 Mar 22:16:00 22:18:09 14° 268° (W) 22:20:05 145.870
QB50P1 02 Mar 22:27:18 22:30:59 29° 97° (E) 22:34:42 145.935-145.965
QB50P2 02 Mar 22:31:04 22:34:54 33° 98° (E) 22:38:44 145.880/145.840
TIGRISAT 02 Mar 22:33:10 22:37:26 69° 101° (E) 22:41:45 435.000
BUGSAT 1 02 Mar 22:37:22 22:40:53 27° 96° (E) 22:44:25 437.445
DUCHIFAT 1 02 Mar 22:45:52 22:49:57 50° 100° (E) 22:54:02 145.980
ANTELSAT 02 Mar 22:46:47 22:51:06 77° 283° (WNW) 22:55:28 437.575/2403.000
RS-15 02 Mar 22:49:06 22:59:57 74° 114° (ESE) 23:10:52 29.354- 29.394
DANDE 02 Mar 23:00:24 23:06:17 28° 95° (E) 23:11:14 436.750
AISAT 02 Mar 23:04:12 23:07:31 19° 266° (W) 23:10:43 437.250
VERMONT LUNAR 02 Mar 23:05:25 23:08:45 45° 212° (SSW) 23:12:03 437.305
CUBEBUG 1 02 Mar 23:06:06 23:10:21 45° 261° (W) 23:14:38 437.445
POLYITAN 1 02 Mar 23:06:07 23:10:21 85° 283° (WNW) 23:14:33 437.675
POPSAT HIP 1 02 Mar 23:06:35 23:10:49 85° 283° (WNW) 23:15:01 437.405
PHONESAT 2.4 02 Mar 23:09:45 23:13:23 85° 25° (NNE) 23:17:00 2401.200-2431.200
VELOX 1 02 Mar 23:14:18 23:17:05 16° 267° (W) 23:19:40 145.980
50 SAT 02 Mar 23:22:45 23:23:27 10° 269° (W) 23:23:51 437.505
CUSAT 1 02 Mar 23:28:47 23:35:32 61° 97° (E) 23:40:41 437.405
ESTCUBE 1 02 Mar 23:29:22 23:33:00 23° 265° (W) 23:36:33 437.505/2401.250
NANOSAT C BR1 02 Mar 23:29:55 23:33:56 42° 286° (WNW) 23:37:53 145.865
BEESAT 02 Mar 23:35:22 23:35:38 10° 66° (ENE) 23:36:14 436.000
SPROUT 02 Mar 23:37:36 23:41:56 88° 258° (WSW) 23:46:18 437.525
TISAT 1 02 Mar 23:41:01 23:45:18 88° 257° (WSW) 23:49:37 437.305
UNISAT 6 02 Mar 23:46:10 23:48:53 16° 290° (WNW) 23:51:26 437.425
SO-50 02 Mar 23:56:05 23:57:40 12° 108° (ESE) 23:59:32 436.795
ITUPSAT 1 02 Mar 23:59:34 00:02:55 20° 70° (ENE) 00:06:26 437.325
QB50P1 03 Mar 00:03:48 00:06:42 18° 289° (WNW) 00:09:25 145.935-145.965
QB50P2 03 Mar 00:07:58 00:10:34 16° 290° (WNW) 00:12:59 145.880/145.840
GONETS M04 03 Mar 00:11:08 00:13:48 11° 298° (WNW) 00:15:37
BUGSAT 1 03 Mar 00:13:20 00:16:13 18° 289° (WNW) 00:18:55 437.445
DUCHIFAT 1 03 Mar 00:24:22 00:25:25 11° 292° (WNW) 00:26:12 145.980
DANDE 03 Mar 00:42:57 00:49:36 37° 280° (W) 00:54:45 436.750
PHONESAT 2.4 03 Mar 00:49:23 00:51:32 15° 219° (SW) 00:53:35 2401.200-2431.200
Oscar 19 03 Mar 00:51:47 00:56:16 31° 97° (E) 01:00:49 437.125/150
SWISSCUBE 03 Mar 00:59:37 01:04:23 79° 258° (WSW) 01:09:12 437.505
RS-15 03 Mar 01:04:15 01:13:28 29° 317° (NW) 01:22:29 29.354- 29.394
BEESAT 03 Mar 01:08:15 01:12:59 69° 259° (WSW) 01:17:46 436.000
BEESAT 3 03 Mar 01:08:25 01:09:47 12° 48° (NE) 01:11:21 437.485
CUSAT 1 03 Mar 01:14:51 01:18:23 15° 284° (WNW) 01:21:10 437.405
KKS-1 03 Mar 01:16:59 01:20:30 24° 71° (ENE) 01:24:08 437.445
STARS 03 Mar 01:23:31 01:26:23 18° 70° (ENE) 01:29:25 437.465
BEESAT 2 03 Mar 01:33:01 01:35:51 18° 52° (NE) 01:38:47 435.950
SO-50 03 Mar 01:33:17 01:37:45 54° 301° (WNW) 01:42:23 436.795
JUGNU 03 Mar 01:34:07 01:38:06 19° 170° (S) 01:42:09 437.505
ITUPSAT 1 03 Mar 01:36:16 01:40:37 34° 263° (W) 01:44:57 437.325
SRMSAT 03 Mar 01:38:54 01:40:06 11° 163° (SSE) 01:41:28 437.500
Gurwin Techsat 1B 03 Mar 02:03:23 02:08:18 38° 98° (E) 02:13:15 435.225
YUBILEINY 03 Mar 02:14:25 02:21:41 29° 72° (ENE) 02:29:12 435.215
ITAMSAT 1 03 Mar 02:29:24 02:34:38 84° 284° (WNW) 02:39:51 435.822/435.867
Oscar 19 03 Mar 02:31:22 02:35:30 25° 290° (WNW) 02:39:32 437.125/150
AO-7 03 Mar 02:33:49 02:37:11 13° 90° (E) 02:41:16 29.400- 29.500
BEESAT 3 03 Mar 02:44:16 02:48:18 56° 245° (WSW) 02:52:15 437.485
KKS-1 03 Mar 02:53:23 02:57:06 24° 264° (W) 03:00:43 437.445
STARS 03 Mar 02:58:38 03:02:39 33° 262° (W) 03:06:38 437.465
AIST 2 03 Mar 03:09:05 03:13:21 77° 61° (ENE) 03:17:31 435.215
BEESAT 2 03 Mar 03:10:25 03:14:08 32° 247° (WSW) 03:17:45 435.950
HORYU 2 03 Mar 03:15:11 03:19:31 53° 100° (E) 03:23:54 437.375
JUGNU 03 Mar 03:21:54 03:26:33 24° 179° (S) 03:31:14 437.505
SRMSAT 03 Mar 03:24:26 03:28:41 20° 171° (S) 03:32:58 437.500
M-CUBED/EXP-1 PRIME 03 Mar 03:32:11 03:35:27 71° 73° (ENE) 03:38:48 437.505
AUBIESAT-1 03 Mar 03:33:52 03:37:07 63° 72° (ENE) 03:40:27 437.475
Gurwin Techsat 1B 03 Mar 03:44:02 03:48:04 22° 291° (WNW) 03:51:57 435.225
JAS-2 03 Mar 04:05:34 04:13:01 57° 99° (E) 04:20:45 435.910
MOZHAYETS 4 03 Mar 04:06:06 04:10:39 81° 77° (ENE) 04:15:14
YUBILEINY 03 Mar 04:10:24 04:18:54 51° 269° (W) 04:27:14 435.215
AO-7 03 Mar 04:22:47 04:31:07 89° 106° (ESE) 04:39:25 29.400- 29.500
PCSat 03 Mar 04:43:04 04:46:08 16° 50° (NE) 04:49:26 145.827
HORYU 2 03 Mar 04:54:11 04:55:48 12° 292° (WNW) 04:57:09 437.375
PRISM 03 Mar 05:04:46 05:07:56 22° 71° (ENE) 05:11:14 437.425
JUGNU 03 Mar 05:10:46 05:15:01 20° 189° (S) 05:19:14 437.505
SRMSAT 03 Mar 05:12:35 05:17:18 24° 181° (S) 05:22:01 437.500
RS-15 03 Mar 05:45:14 05:51:09 16° 28° (NNE) 05:57:46 29.354- 29.394
JAS-2 03 Mar 05:51:31 05:57:41 27° 292° (WNW) 06:03:48 435.910
Cubesat XI-IV 03 Mar 05:59:23 06:04:36 50° 100° (E) 06:09:47 437.490
CUBESAT XI-V 03 Mar 06:06:08 06:10:48 70° 259° (W) 06:15:30 437.345
CUTE-I 03 Mar 06:08:10 06:13:28 61° 101° (E) 06:18:45 437.470
AO-7 03 Mar 06:17:56 06:23:02 17° 302° (WNW) 06:27:39 29.400- 29.500
STRAND 1 03 Mar 06:22:31 06:27:40 81° 259° (W) 06:32:50 437.568
PCSat 03 Mar 06:24:44 06:30:06 64° 247° (WSW) 06:35:26 145.827
AIST 1 03 Mar 06:31:08 06:35:09 39° 92° (E) 06:39:16
PRISM 03 Mar 06:40:05 06:43:23 22° 265° (W) 06:46:36 437.425
SRMSAT 03 Mar 07:01:48 07:05:55 19° 190° (S) 07:09:58 437.500
JUGNU 03 Mar 07:02:05 07:03:26 11° 197° (SSW) 07:04:39 437.505
Cubesat XI-IV 03 Mar 07:40:51 07:44:20 17° 293° (WNW) 07:47:34 437.490
CUTE-I 03 Mar 07:50:15 07:53:05 14° 294° (WNW) 07:55:38 437.470
SEEDS 03 Mar 07:51:58 07:53:31 12° 91° (E) 07:55:18 437.485
CANX-2 03 Mar 07:54:54 07:57:47 18° 94° (E) 08:00:50 2200.000
RS-15 03 Mar 07:55:47 08:07:00 57° 55° (NE) 08:18:48 29.354- 29.394
ISS 03 Mar 08:05:48 08:09:01 78° 316° (NW) 08:12:15 145.825
BRITE-PL 03 Mar 08:06:40 08:10:49 39° 97° (E) 08:14:46 437.365/2234.400
GOMX 1 03 Mar 08:09:00 08:12:32 26° 95° (E) 08:16:03 467.674
O/OREOS (USA 219) 03 Mar 08:10:55 08:14:39 26° 103° (ESE) 08:18:31 437.305
AIST 1 03 Mar 08:10:58 08:13:05 13° 288° (WNW) 08:14:58
CUTE 1.7 + AOD 2 03 Mar 08:12:49 08:16:27 27° 96° (E) 08:20:08 437.475
GONETS M04 03 Mar 08:22:38 08:30:49 44° 77° (ENE) 08:39:08
DOVE 4 03 Mar 08:40:46 08:44:45 41° 98° (E) 08:48:40 437.250
CINEMA 3 03 Mar 08:45:01 08:48:15 22° 95° (E) 08:51:34 145.822/145.860
Oscar 11 03 Mar 08:51:30 08:54:43 21° 94° (E) 08:58:03 145.826/435.025
AAUSAT CUBESAT 2 03 Mar 08:54:09 08:58:15 52° 100° (E) 09:02:21 437.432
HO-68 03 Mar 08:54:38 09:01:51 82° 104° (ESE) 09:09:03 435.675
COMPASS 1 03 Mar 08:57:07 09:01:19 67° 101° (E) 09:05:31 437.405
CUBEBUG 2 03 Mar 09:02:01 09:04:56 19° 94° (E) 09:07:58 437.445
UNISAT 6 03 Mar 09:04:04 09:07:04 19° 71° (ENE) 09:10:10 437.425
DX 1 03 Mar 09:17:06 09:20:01 18° 94° (E) 09:23:04 434.975-435.025
QB50P1 03 Mar 09:17:22 09:19:23 14° 69° (ENE) 09:21:38 145.935-145.965
QB50P2 03 Mar 09:20:59 09:23:25 15° 70° (ENE) 09:26:02 145.880/145.840
BUGSAT 1 03 Mar 09:25:03 09:26:34 12° 69° (ENE) 09:28:20 437.445
SEEDS 03 Mar 09:25:35 09:29:36 42° 285° (WNW) 09:33:35 437.485
TIGRISAT 03 Mar 09:27:48 09:31:47 34° 74° (ENE) 09:35:44 435.000
CANX-2 03 Mar 09:30:06 09:33:47 28° 287° (WNW) 09:37:23 2200.000
DUCHIFAT 1 03 Mar 09:34:41 09:37:54 22° 72° (ENE) 09:41:13 145.980
FUNcube-1 03 Mar 09:36:56 09:40:40 33° 97° (E) 09:44:28 145.935
HUMSAT D 03 Mar 09:37:48 09:40:19 16° 93° (E) 09:43:00 437.325/437.525
ZACube-1 03 Mar 09:38:23 09:42:10 35° 98° (E) 09:46:01 437.345
ANTELSAT 03 Mar 09:41:24 09:45:42 52° 75° (ENE) 09:49:56 437.575/2403.000
UKube-1 03 Mar 09:44:59 09:49:00 37° 98° (E) 09:53:02 .
BRITE-PL 03 Mar 09:46:45 09:49:00 13° 292° (WNW) 09:50:59 437.365/2234.400
GOMX 1 03 Mar 09:47:28 09:50:34 19° 290° (WNW) 09:53:29 467.674
CUTE 1.7 + AOD 2 03 Mar 09:49:09 09:52:14 19° 289° (WNW) 09:55:11 437.475
O/OREOS (USA 219) 03 Mar 09:50:25 09:54:04 23° 298° (WNW) 09:57:39 437.305
POLYITAN 1 03 Mar 09:54:49 09:58:48 39° 74° (ENE) 10:02:50 437.675
POPSAT HIP 1 03 Mar 09:55:01 09:58:59 38° 74° (ENE) 10:03:00 437.405
DELFI C3 03 Mar 09:58:14 10:02:19 70° 283° (WNW) 10:06:23 145.870
UWE-3 03 Mar 09:58:40 10:02:50 83° 100° (E) 10:07:01 435.000/436.395/437.385
RS-15 03 Mar 10:08:48 10:19:11 37° 252° (WSW) 10:29:34 29.354- 29.394
SO-50 03 Mar 10:09:07 10:13:44 39° 56° (ENE) 10:18:21 436.795
CUSAT 1 03 Mar 10:15:08 10:16:03 11° 76° (ENE) 10:17:07 437.405
NANOSAT C BR1 03 Mar 10:17:37 10:21:54 75° 77° (ENE) 10:26:10 145.865
GONETS M04 03 Mar 10:19:50 10:27:29 34° 272° (W) 10:34:56
DOVE 4 03 Mar 10:20:28 10:22:12 12° 291° (WNW) 10:23:41 437.250
CINEMA 3 03 Mar 10:22:13 10:25:25 21° 288° (WNW) 10:28:31 145.822/145.860
Oscar 11 03 Mar 10:27:16 10:30:53 26° 288° (WNW) 10:34:26 145.826/435.025
AAUSAT CUBESAT 2 03 Mar 10:32:47 10:33:31 10° 291° (WNW) 10:33:56 437.432
CUBEBUG 2 03 Mar 10:38:11 10:41:40 25° 287° (WNW) 10:45:03 437.445
UNISAT 6 03 Mar 10:39:46 10:43:42 30° 263° (W) 10:47:31 437.425
HO-68 03 Mar 10:44:37 10:48:52 16° 298° (WNW) 10:52:44 435.675
QB50P1 03 Mar 10:50:55 10:54:59 40° 262° (W) 10:59:01 145.935-145.965
DX 1 03 Mar 10:52:30 10:56:21 30° 288° (WNW) 11:00:06 434.975-435.025
QB50P2 03 Mar 10:55:08 10:59:05 35° 262° (W) 11:03:01 145.880/145.840
BUGSAT 1 03 Mar 10:57:35 11:01:42 46° 261° (W) 11:05:50 437.445
AISAT 03 Mar 10:58:24 11:02:50 69° 284° (WNW) 11:07:12 437.250
CUBEBUG 1 03 Mar 10:59:41 11:03:55 46° 99° (E) 11:08:07 437.445
50 SAT 03 Mar 11:02:06 11:05:59 56° 284° (WNW) 11:09:52 437.505
TIGRISAT 03 Mar 11:05:50 11:08:40 16° 267° (W) 11:11:15 435.000
VELOX 1 03 Mar 11:07:40 11:12:01 55° 285° (WNW) 11:16:19 145.980
DUCHIFAT 1 03 Mar 11:10:06 11:13:39 25° 264° (W) 11:17:08 145.980
HUMSAT D 03 Mar 11:12:35 11:16:11 29° 287° (WNW) 11:19:44 437.325/437.525
FUNcube-1 03 Mar 11:14:19 11:16:49 15° 289° (WNW) 11:19:09 145.935
ZACube-1 03 Mar 11:15:58 11:18:18 14° 290° (WNW) 11:20:29 437.345
ANTELSAT 03 Mar 11:22:08 11:22:51 10° 269° (W) 11:23:14 437.575/2403.000
UKube-1 03 Mar 11:22:18 11:24:53 15° 291° (WNW) 11:27:17 .
ESTCUBE 1 03 Mar 11:25:39 11:30:13 77° 283° (WNW) 11:34:45 437.505/2401.250
SPROUT 03 Mar 11:29:46 11:33:06 22° 95° (E) 11:36:31 437.525
DANDE 03 Mar 11:30:55 11:33:22 36° 264° (W) 11:35:53 436.750
TISAT 1 03 Mar 11:31:22 11:34:27 20° 94° (E) 11:37:39 437.305
POLYITAN 1 03 Mar 11:32:43 11:34:57 13° 268° (W) 11:36:57 437.675
POPSAT HIP 1 03 Mar 11:32:48 11:35:05 14° 268° (W) 11:37:09 437.405
SO-50 03 Mar 11:50:26 11:54:04 20° 250° (WSW) 11:57:29 436.795
Oscar 19 03 Mar 12:04:23 12:08:44 29° 71° (ENE) 12:13:08 437.125/150
CUBEBUG 1 03 Mar 12:37:54 12:39:56 13° 292° (WNW) 12:41:43 437.445
SWISSCUBE 03 Mar 13:04:54 13:09:23 38° 98° (E) 13:13:52 437.505
SPROUT 03 Mar 13:05:41 13:09:08 23° 288° (WNW) 13:12:28 437.525
TISAT 1 03 Mar 13:06:46 13:10:15 25° 288° (WNW) 13:13:37 437.305
BEESAT 03 Mar 13:13:18 13:17:53 44° 99° (E) 13:22:27 436.000
Gurwin Techsat 1B 03 Mar 13:20:01 13:24:52 39° 72° (ENE) 13:29:48 435.225
AO-7 03 Mar 13:28:56 13:32:48 15° 57° (ENE) 13:37:12 29.400- 29.500
ITUPSAT 1 03 Mar 13:40:59 13:45:50 89° 95° (E) 13:50:40 437.325
ITAMSAT 1 03 Mar 13:42:40 13:47:53 88° 267° (W) 13:53:09 435.822/435.867
Oscar 19 03 Mar 13:43:44 13:48:03 26° 264° (W) 13:52:17 437.125/150
HORYU 2 03 Mar 14:09:35 14:13:18 28° 72° (ENE) 14:17:07 437.375
JAS-2 03 Mar 14:18:15 14:19:25 11° 61° (ENE) 14:21:01 435.910
ISS 03 Mar 14:37:52 14:39:47 15° 32° (NNE) 14:41:45 145.825
SWISSCUBE 03 Mar 14:43:41 14:46:59 18° 291° (WNW) 14:50:06 437.505
KKS-1 03 Mar 14:48:13 14:52:40 88° 283° (WNW) 14:57:05 437.445
BEESAT 03 Mar 14:52:26 14:55:25 16° 292° (WNW) 14:58:10 436.000
STARS 03 Mar 14:52:39 14:57:00 64° 101° (E) 15:01:20 437.465
Gurwin Techsat 1B 03 Mar 15:01:01 15:05:01 21° 266° (W) 15:08:50 435.225
YUBILEINY 03 Mar 15:09:19 15:17:03 39° 88° (E) 15:25:01 435.215
AO-7 03 Mar 15:16:13 15:24:33 81° 72° (ENE) 15:32:55 29.400- 29.500
HORYU 2 03 Mar 15:46:38 15:50:00 20° 265° (W) 15:53:14 437.375
VERMONT LUNAR 03 Mar 15:47:05 15:50:18 36° 147° (SSE) 15:53:34 437.305
PHONESAT 2.4 03 Mar 15:57:57 16:00:40 20° 143° (SE) 16:03:28 2401.200-2431.200
JAS-2 03 Mar 15:58:17 16:03:39 81° 257° (WSW) 16:09:38 435.910
MOZHAYETS 4 03 Mar 16:06:22 16:10:17 27° 96° (E) 16:14:17
ISS 03 Mar 16:13:17 16:16:25 46° 227° (SW) 16:19:32 145.825
